Showing default

EXPLORER 16, 506

Orbit data source: Space-Track

EXPLORER 16, 506 is a payload satellite owned by NASA LaRC (US) in LEO that was launched on Sun, 16 Dec 1962 UTC via an SCOUT X-3 launch vehicle from the Wallops Island (WLPIS). Payload-class satellites include a variety of spacecraft equipped with specific instruments for various scientific and technological missions. These include communications satellites like Starlink; space stations such as the ISS; scientific satellites like the Hubble; Earth observation satellites from companies like Planet Labs, Umbra, and HawkEye 360; GPS; miniature CubeSats for education and research; and military/defense satellites.

Loading next visibility...
Identifier
506, 1962-070A
Orbit
LEO
Last TLE update
1 day ago
Origin
Manufacturer
NASA LaRC
Mission
Civil Science
Bus & Motor
S-55, Unknown motor
Mass
100 kg wet, 76 kg dry
Launch date (UTC)
1962-12-16 (62 years ago)
Launch vehicle
SCOUT X-3
Launch site
Wallops Island (WLPIS)
Object type
Payload
Rocket body
Debris
Shape & HBR
Cyl, 1.93 m
Radar Cross Section
1.071 m², Medium (>0.1 m² and < 1m²)

Expand to show TLE details & history

TLE from 1 day ago
0 EXPLORER 16
1 00506U 62070A   25128.39410956  .00000039  00000-0  11852-3 0  9993
2 00506  52.0016 160.3058 0275893 292.1367  65.0485 13.85681910152631
Epoch: 2025-05-08T09:27Z
Definitive object data (Epoch: 2025-05-08T09:27:31.065Z)
Latitude
-0.00004°
Longitude
151.9611°
Altitude
863.976 km
Speed
7.462 km/s
True Right ascension
10h 41m 13s
True Declination
0° 00' 00"
Sunlit
Object was in daylight at TLE epoch
Visualization TLE readout
Latitude
24.70438°
Longitude
167.96415°
Altitude
960.958 km
Speed
7.366 km/s
Apparent Right ascension
12h 15m 26s
Apparent Declination
-5° 05' 52"
Sunlit
Object is in daylight
Visualization observer readout
Local Sidereal Time
00:56:41
Azimuth
17.641° NNE
Elevation
-53.962°
Doppler factor
1
Orbital elements
Apogee altitude
1,146.238 km
Perigee altitude
742.201 km
Semi-major axis
7,322.357 km
Eccentricity
0.0275893
Inclination
52.0016°
RAAN
160.3058°
Arg. of periapsis
292.1367°
True anomaly
67.95596°
Mean anomaly
65.0485°
Eccentric anomaly
66.49812°
Mean motion
3.46391 °/min
BSTAR
0.00011852
Orbital period
103.93 mins
Loading maneuver chart data...
Loading SW <> Apogee altitude chart data...
Loading historical data...
Loading historical data...
Loading historical data...
Loading historical data...
Loading historical data...
Loading historical data...
Loading historical data...
Other satellites on launch #70 in the year 1962 (1962-12-16 UTC)

EXPLORER 16 Visibility forecast

Observer location: undefined°, undefined°

Span
Click to sort rows by Start time (UTC) header in descending order
Start Az.
Max El. time (UTC)
Max El. Az.
Max El.
End time (UTC)
End Az.
9 mins2025-05-10 03:08:09.864Z175.229° S2025-05-10 03:12:09.864Z128.788° SE24.776°2025-05-10 03:17:09.864Z74.423° E
12 mins2025-05-10 04:55:09.864Z239.092° WSW2025-05-10 05:00:09.864Z291.008° WNW43.952°2025-05-10 05:07:09.864Z50.542° ENE
11 mins2025-05-10 06:45:09.864Z287.066° WNW2025-05-10 06:50:09.864Z344.935° N30.034°2025-05-10 06:56:09.864Z48.076° ENE
11 mins2025-05-10 08:36:09.864Z316.63° NNW2025-05-10 08:41:09.864Z16.232° NNE28.546°2025-05-10 08:47:09.864Z71.533° E
12 mins2025-05-10 10:25:09.864Z314.282° NW2025-05-10 10:31:09.864Z46.853° ENE41.218°2025-05-10 10:37:09.864Z110.042° ESE
11 mins2025-05-10 12:14:09.864Z292.258° WNW2025-05-10 12:19:09.864Z236.235° WSW34.304°2025-05-10 12:25:09.864Z164.696° S
|